Regional Weather Roundup
Issued by NWS

Home | Current Version | Previous Version | Text Only | Print | Product List | Glossary On
Versions: 1 2 3 4 5 6 7 8 9 10 11 12 13 14 15 16 17 18 19 20 21 22 23 24 25 26 27 28 29 30 31 32 33 34 35 36 37 38 39 40 41 42 43 44 45 46 47 48 49 50
000
ASUS45 KPSR 021610
RWRAZ

ARIZONA HOURLY REGIONAL WEATHER ROUNDUP
NATIONAL WEATHER SERVICE PHOENIX AZ
900 AM MST SUN AUG 02 2015

NOTE: FAIR INDICATES FEW OR NO CLOUDS BELOW 12,000 FEET WITH NO
SIGNIFICANT WEATHER AND/OR OBSTRUCTIONS TO VISIBILITY.

AZZ001>003-036-021700-
NORTHWEST ARIZONA

CITY           SKY/WX    TMP DP  RH WIND       PRES   REMARKS
BULLHEAD CITY  SUNNY     90  57  33 CALM      29.85S
KINGMAN        SUNNY     83  53  35 VRB5      30.03S
$$

AZZ004>008-015-016-018-021700-
NORTH CENTRAL ARIZONA

CITY           SKY/WX    TMP DP  RH WIND       PRES   REMARKS
GRAND CANYON   MOSUNNY   71  55  56 CALM      30.25R
WILLIAMS       PTSUNNY   72  54  53 SW5       30.31S
PRESCOTT       MOSUNNY   78  57  48 CALM      30.14R
FLAGSTAFF      SUNNY     69  53  56 W9        30.28R
PAYSON         SUNNY     73  57  56 CALM      30.18R
PAGE           CLOUDY    71  62  73 NW7       30.12R
$$

AZZ009>014-017-021700-
NORTHEAST ARIZONA

CITY           SKY/WX    TMP DP  RH WIND       PRES   REMARKS
WINSLOW        MOSUNNY   80  57  45 E6        30.13F
SAINT JOHNS    MOSUNNY   74  54  49 CALM      30.20S
SHOW LOW       MOSUNNY   68  54  60 S9        30.26R
$$

AZZ023-021700-
GREATER PHOENIX AREA

CITY           SKY/WX    TMP DP  RH WIND       PRES   REMARKS
PHOENIX        MOSUNNY   93  62  35 S8        29.85R
GLENDALE       MOSUNNY   91  63  38 VRB3      29.87R
DEER VALLEY    SUNNY     91  61  36 SE8       29.88R
SCOTTSDALE     SUNNY     93  61  34 SE9       29.89R
MESA-FALCON    MOSUNNY   93  61  33 SE12      29.87R
MESA-GATEWAY   MOSUNNY   88  63  42 S9        29.90R
CHANDLER       SUNNY     93  63  36 VRB5      29.87R
$$

AZZ027-028-021700-
SOUTHWEST MARICOPA COUNTY AND PINAL COUNTY

CITY           SKY/WX    TMP DP  RH WIND       PRES   REMARKS
CASA GRANDE    SUNNY     91  63  38 CALM      29.88R
GILA BEND      SUNNY     95  56  27 VRB2      29.83S
$$

AZZ503-504-507>509-021700-
SOUTHEAST ARIZONA

CITY           SKY/WX    TMP DP  RH WIND       PRES   REMARKS
TUCSON         SUNNY     86  62  44 S8        30.00R
DAVIS-MONTHAN  SUNNY     88  59  37 SE5       29.99R
RYAN FIELD     SUNNY     88  66  48 E3        29.99R
NOGALES        SUNNY     81  62  52 S5        30.09S
SIERRA VISTA   SUNNY     78  60  54 VRB2      30.16R
DOUGLAS          N/A    N/A N/A N/A MISG      30.11S
SAFFORD        PTSUNNY   83  62  49 CALM      30.03S
$$

AZZ020-021-025-026-031-021700-
SOUTHWEST ARIZONA

CITY           SKY/WX    TMP DP  RH WIND       PRES   REMARKS
YUMA           SUNNY     97  56  25 S3        29.79R
$$

CAZ031-033-041-043-047-048-061-021700-
SOUTHERN CALIFORNIA

CITY           SKY/WX    TMP DP  RH WIND       PRES   REMARKS
DOWNTOWN L.A.  CLOUDY    71  63  75 CALM      29.92R
L.A. AIRPORT   CLOUDY    71  64  78 CALM      29.93R
SAN DIEGO      CLOUDY    70  63  78 CALM      29.94R
BURBANK        SUNNY     73  62  68 CALM      29.93R
ONTARIO        MOSUNNY   72  63  73 S5        29.94R
RIVERSIDE      SUNNY     72  63  73 W5        29.93R
PALM SPRINGS   SUNNY     95  57  27 CALM      29.82S
EL CENTRO NAS  SUNNY     94  46  19 VRB3      29.79R
IMPERIAL       SUNNY     93  47  20 W5        29.77R
BLYTHE         SUNNY     94  60  32 SW3       29.81R
NEEDLES        SUNNY     92  55  28 CALM      29.86R
$$

NVZ020-UTZ003-021700-
SOUTHERN NEVADA-UTAH

CITY           SKY/WX    TMP DP  RH WIND       PRES   REMARKS
LAS VEGAS      MOSUNNY   85  54  34 SW6       29.91R
SALT LAKE CITY PTSUNNY   83  41  22 SE6       30.01R
$$

NMZ009-TXZ055-021700-
NEW MEXICO-WEST TEXAS

CITY           SKY/WX    TMP DP  RH WIND       PRES   REMARKS
ALBUQUERQUE    MOSUNNY   74  56  53 CALM      30.20S
EL PASO        PTSUNNY   84  56  38 SE6       30.07S
$$


........................KEY........................
SKY/WX - SKY CONDITION/WEATHER
TMP    - TEMPERATURE IN FAHRENHEIT
DP     - DEW POINT IN FAHRENHEIT
RH     - RELATIVE HUMIDITY IN PERCENT
WIND   - DIRECTION AND SPEED IN MILES PER HOUR (MPH)
VRB    - VARIABLE WIND DIRECTION
PRES   - MEAN SEA LEVEL PRESSURE IN INCHES OF MERCURY
         F - FALLING PRESSURE   R - RISING PRESSURE
         S - STEADY PRESSURE
VSB    - VISIBILITY IN MILES
HX     - HEAT INDEX IN FAHRENHEIT
WCI    - WIND CHILL INDEX IN FAHRENHEIT
TC     - TEMPERATURE IN CELSIUS WHICH IS ALSO KNOWN AS
         TEMPERATURE IN CENTIGRADE
AFB    - AIR FORCE BASE
         LUKE AFB IS LUKE AIR FORCE BASE
         DAVIS-MONTHAN IS DAVIS-MONTHAN AIR FORCE BASE
NAS    - NAVAL AIR STATION
         EL CENTRO NAS IS EL CENTRO NAVAL AIR STATION
N/A    - NOT AVAILABLE



USA.gov is the U.S. government's official web portal to all federal, state and local government web resources and services.